Weather History for Manteo, NC

Change the Weather History Date:

Friday, January 4, 2013

  Actual Average Record
Temperature  
Mean Temperature 39 °F -  
Max Temperature 48 °F 50 °F 73 °F (2005)
Min Temperature 30 °F 37 °F 22 °F (1979)
Degree Days  
Heating Degree Days 26    
Moisture  
Dew Point 32 °F    
Average Humidity 69    
Maximum Humidity 95    
Minimum Humidity 47    
Precipitation  
Precipitation 0.00 in - - ()
Sea Level Pressure  
Sea Level Pressure 30.22 in    
Wind  
Wind Speed 4 mph (WNW)    
Max Wind Speed 12 mph    
Max Gust Speed 17 mph    
Visibility 10 miles    
Events      
Averages and records for this station are not official NWS values.
T = Trace of Precipitation, MM = Missing Value Source: NWS Daily Summary

Daily Weather History Graph

Daily Weather History Graph

Search for Another Location

Airport:

Trip Planner

Search our weather history database for the weather conditions in past years. The results will help you decide how hot, cold, wet, or windy it might be!

Date:

Astronomy

Jan. 04, 2013 Rise Set
Actual Time 7:13 AM EST 5:02 PM EST
Civil Twilight 6:45 AM EST 5:30 PM EST
Nautical Twilight 6:13 AM EST 6:02 PM EST
Astronomical Twilight 5:42 AM EST 6:33 PM EST
Moon No Moon Rise 11:09 AM EST (1/4)
Length of Visible Light 10h 45m
Length of Day
9h 48m
Waning Gibbous, 55% of the Moon is Illuminated
Jan 4
Waning Gibbous
Jan 4
Last Quarter
Jan 11
New
Jan 18
First Quarter
Jan 26
Full

Hourly Weather History & Observations

Time (EST) Temp. Windchill Dew Point Humidity Pressure Visibility Wind Dir Wind Speed Gust Speed Precip Events Conditions
12:15 AM 32.0 °F - 30.0 °F 92% 30.23 in - Calm Calm - N/A   Unknown
12:35 AM 31.8 °F - 29.5 °F 91% 30.23 in 10.0 mi Calm Calm - N/A   Clear
12:55 AM 31.8 °F - 29.7 °F 92% 30.23 in 10.0 mi Calm Calm - N/A   Clear
1:15 AM 31.1 °F - 29.7 °F 94% 30.22 in 10.0 mi Calm Calm - N/A   Clear
1:35 AM 30.7 °F - 28.9 °F 93% 30.22 in 10.0 mi Calm Calm - N/A   Clear
1:55 AM 31.1 °F 27.7 °F 29.8 °F 95% 30.23 in 10.0 mi WNW 3.5 mph - N/A   Clear
2:35 AM 35.6 °F - 32.0 °F 87% 30.24 in 10.0 mi Calm Calm - N/A   Clear
2:55 AM 36.3 °F - 32.9 °F 87% 30.23 in 10.0 mi Calm Calm - N/A   Clear
3:15 AM 37.0 °F 34.5 °F 33.1 °F 86% 30.22 in 10.0 mi West 3.5 mph - N/A   Clear
3:35 AM 37.0 °F 33.3 °F 33.1 °F 86% 30.22 in 10.0 mi WNW 4.6 mph - N/A   Clear
3:55 AM 36.7 °F 32.0 °F 32.9 °F 86% 30.23 in 10.0 mi WNW 5.8 mph - N/A   Clear
4:15 AM 37.0 °F 33.3 °F 33.6 °F 87% 30.24 in 10.0 mi WNW 4.6 mph - N/A   Clear
6:55 AM 36.5 °F 32.7 °F 35.2 °F 95% 30.25 in 10.0 mi WNW 4.6 mph - N/A   Clear
7:15 AM 36.5 °F 31.8 °F 35.2 °F 95% 30.26 in 10.0 mi WNW 5.8 mph - N/A   Clear
7:35 AM 37.4 °F 32.8 °F 36.0 °F 95% 30.26 in 10.0 mi West 5.8 mph - N/A   Clear
7:55 AM 37.8 °F 34.2 °F 36.0 °F 93% 30.26 in 10.0 mi West 4.6 mph - N/A   Clear
8:15 AM 38.5 °F 36.1 °F 36.5 °F 93% 30.27 in 10.0 mi NW 3.5 mph - N/A   Clear
8:35 AM 39.6 °F 37.4 °F 37.2 °F 91% 30.26 in 10.0 mi WNW 3.5 mph - N/A   Clear
8:55 AM 40.6 °F 36.7 °F 36.5 °F 85% 30.27 in 10.0 mi WNW 5.8 mph - N/A   Clear
9:15 AM 41.9 °F 37.5 °F 32.2 °F 68% 30.27 in 10.0 mi NW 6.9 mph - N/A   Clear
9:35 AM 42.8 °F 40.1 °F 31.6 °F 65% 30.27 in 10.0 mi NW 4.6 mph - N/A   Clear
9:55 AM 42.8 °F 38.0 °F 32.0 °F 66% 30.27 in 10.0 mi WNW 8.1 mph - N/A   Clear
10:15 AM 43.0 °F 37.7 °F 31.5 °F 64% 30.27 in 10.0 mi WNW 9.2 mph - N/A   Clear
10:35 AM 43.5 °F 39.4 °F 30.6 °F 60% 30.27 in 10.0 mi NW 6.9 mph - N/A   Clear
10:55 AM 43.9 °F 39.9 °F 30.7 °F 60% 30.27 in 10.0 mi WNW 6.9 mph - N/A   Clear
11:15 AM 44.2 °F 39.2 °F 30.0 °F 57% 30.26 in 10.0 mi NW 9.2 mph - N/A   Clear
11:35 AM 43.7 °F 37.7 °F 30.2 °F 59% 30.25 in 10.0 mi NW 11.5 mph 17.3 mph N/A   Clear
11:55 AM 44.2 °F 39.7 °F 30.7 °F 59% 30.24 in 10.0 mi WNW 8.1 mph - N/A   Clear
12:15 PM 44.6 °F 39.2 °F 30.7 °F 58% 30.23 in 10.0 mi NW 10.4 mph 16.1 mph N/A   Clear
12:35 PM 44.8 °F 39.9 °F 29.7 °F 55% 30.22 in 10.0 mi NW 9.2 mph - N/A   Clear
12:55 PM 45.9 °F 41.2 °F 29.3 °F 52% 30.21 in 10.0 mi NW 9.2 mph - N/A   Clear
1:15 PM 46.4 °F 42.4 °F 29.7 °F 52% 30.19 in 10.0 mi West 8.1 mph - N/A   Clear
1:35 PM 46.6 °F - 31.1 °F 55% 30.18 in 10.0 mi WNW 6.9 mph - N/A   Clear
1:55 PM 47.7 °F - 30.0 °F 50% 30.17 in 10.0 mi WNW 4.6 mph - N/A   Clear
2:15 PM 48.2 °F - 30.2 °F 50% 30.17 in 10.0 mi West 6.9 mph - N/A   Clear
2:35 PM 48.4 °F - 29.3 °F 48% 30.16 in 10.0 mi WSW 10.4 mph - N/A   Clear
2:55 PM 48.4 °F - 29.5 °F 48% 30.16 in 10.0 mi West 8.1 mph - N/A   Clear
3:15 PM 48.2 °F - 29.3 °F 48% 30.16 in 10.0 mi West 10.4 mph 16.1 mph N/A   Clear
3:35 PM 48.2 °F - 28.8 °F 47% 30.17 in 10.0 mi West 11.5 mph - N/A   Clear
3:55 PM 48.0 °F - 30.2 °F 50% 30.17 in 10.0 mi West 9.2 mph - N/A   Clear
4:15 PM 47.7 °F - 30.2 °F 51% 30.17 in 10.0 mi West 9.2 mph 16.1 mph N/A   Clear
4:35 PM 46.8 °F - 31.1 °F 55% 30.16 in 10.0 mi West 8.1 mph - N/A   Clear
4:55 PM 45.9 °F 42.9 °F 31.1 °F 56% 30.16 in 10.0 mi West 5.8 mph - N/A   Clear
5:15 PM 45.0 °F 42.6 °F 31.8 °F 60% 30.17 in 10.0 mi West 4.6 mph - N/A   Clear
5:35 PM 44.4 °F 41.2 °F 32.2 °F 62% 30.17 in 10.0 mi West 5.8 mph - N/A   Clear
5:55 PM 44.1 °F 42.5 °F 32.5 °F 64% 30.18 in 10.0 mi West 3.5 mph - N/A   Clear
6:15 PM 43.7 °F 42.1 °F 32.4 °F 64% 30.19 in 10.0 mi WNW 3.5 mph - N/A   Clear
6:35 PM 44.2 °F 42.7 °F 32.2 °F 63% 30.19 in 10.0 mi West 3.5 mph - N/A   Clear
6:55 PM 44.2 °F - 34.2 °F 68% 30.19 in 10.0 mi Calm Calm - N/A   Clear
7:15 PM 44.6 °F 41.4 °F 33.8 °F 66% 30.20 in 10.0 mi West 5.8 mph - N/A   Clear
7:35 PM 44.6 °F 41.4 °F 33.8 °F 66% 30.20 in 10.0 mi WNW 5.8 mph - N/A   Clear
7:55 PM 44.4 °F 42.9 °F 33.8 °F 66% 30.20 in 10.0 mi WNW 3.5 mph - N/A   Clear
8:15 PM 44.6 °F 42.2 °F 33.4 °F 65% 30.20 in 10.0 mi WNW 4.6 mph - N/A   Clear
8:35 PM 44.6 °F 41.4 °F 32.9 °F 64% 30.21 in 10.0 mi WNW 5.8 mph - N/A   Clear
8:55 PM 44.6 °F 41.4 °F 33.3 °F 64% 30.22 in 10.0 mi WNW 5.8 mph - N/A   Clear
9:15 PM 44.6 °F 43.1 °F 33.8 °F 66% 30.23 in 10.0 mi WNW 3.5 mph - N/A   Clear
9:35 PM 44.8 °F 40.4 °F 33.8 °F 65% 30.23 in 10.0 mi WNW 8.1 mph - N/A   Clear
9:55 PM 44.6 °F 42.2 °F 34.0 °F 66% 30.23 in 10.0 mi WNW 4.6 mph - N/A   Clear
10:15 PM 44.4 °F 42.0 °F 33.4 °F 65% 30.23 in 10.0 mi West 4.6 mph - N/A   Scattered Clouds
10:35 PM 43.9 °F - 35.2 °F 72% 30.22 in 10.0 mi Calm Calm - N/A   Scattered Clouds
10:55 PM 42.8 °F 41.1 °F 34.2 °F 72% 30.23 in 10.0 mi West 3.5 mph - N/A   Clear
11:15 PM 42.3 °F 40.5 °F 33.8 °F 72% 30.22 in 10.0 mi West 3.5 mph - N/A   Clear
11:35 PM 42.1 °F - 32.9 °F 70% 30.23 in 10.0 mi Calm Calm - N/A   Clear
11:55 PM 41.2 °F 38.2 °F 32.2 °F 70% 30.23 in 10.0 mi West 4.6 mph - N/A   Clear